Regional Weather Roundup
Issued by NWS

Home | Current Version | Previous Version | Text Only | Print | Product List | Glossary On
Versions: 1 2 3 4 5 6 7 8 9 10 11 12 13 14 15 16 17 18 19 20 21 22 23 24 25 26 27 28 29 30 31 32 33 34 35 36 37 38 39 40 41 42 43 44 45 46 47 48 49 50
000
ASUS43 KMKX 250900
RWRWI

WISCONSIN REGIONAL WEATHER ROUNDUP
NATIONAL WEATHER SERVICE MILWAUKEE/SULLIVAN WI
400 AM CDT MON SEP 25 2017

NOTE: "FAIR" INDICATES FEW OR NO CLOUDS BELOW 12,000 FEET WITH NO
SIGNIFICANT WEATHER AND/OR OBSTRUCTIONS TO VISIBILITY.

WIZ001-002-006>008-014>016-023>028-251000-
NORTHWEST WISCONSIN

CITY           SKY/WX    TMP DP  RH WIND       PRES   REMARKS
SUPERIOR ARPT  CLOUDY    65  64  97 NW9       29.91R
ASHLAND        CLOUDY    68  66  93 SW9       29.91R
HAYWARD        RAIN      68  65  90 VRB3      29.93F
SIREN          CLOUDY    66  65  94 W5        29.93F
CUMBERLAND     CLOUDY    64  64 100 S3        29.94R
RICE LAKE      CLOUDY    67  66  94 CALM      29.95S
CHETEK           N/A     69  65  88 CALM      29.94S
LADYSMITH      CLOUDY    66  62  87 CALM      29.97S
EAU CLAIRE     PTCLDY    65  62  90 CALM      29.93R
MENOMONIE      PTCLDY    70  65  84 W5        29.94R
NEW RICHMOND   CLOUDY    67  66  97 W5        29.96R
OSCEOLA        CLOUDY    66  66 100 W8        29.98R
$$

WIZ003>005-009-010-017-018-251000-
NORTH CENTRAL WISCONSIN

CITY           SKY/WX    TMP DP  RH WIND       PRES   REMARKS
MANITOWISH WTR NOT AVBL
ARBOR VITAE    CLEAR     68  61  78 SW3       29.96S
WOODRUFF       CLEAR     68  61  78 SW3       29.96S
RHINELANDER    PTCLDY    69  61  75 SW7       29.98S
EAGLE RIVER    CLEAR     63  57  81 CALM      29.96S
LAND O LAKES   CLEAR     66  59  78 SW3       29.98S
PHILLIPS       CLOUDY    66  62  86 SW5       29.96R
TOMAHAWK       MOCLDY    61  58  89 CALM      29.97S
MEDFORD        CLEAR     61  58  90 S5        29.96F
MERRILL        CLEAR     67  61  80 CALM      29.97S
$$

WIZ029-030-035-036-043>047-251000-
CENTRAL WISCONSIN

CITY           SKY/WX    TMP DP  RH WIND       PRES   REMARKS
WAUSAU         CLEAR     63  60  90 SE6       29.95F
MOSINEE        CLEAR     63  59  88 SE3       29.98S
MARSHFIELD     CLEAR     64  59  83 S5        29.95F
STEVENS POINT  CLEAR     62  60  94 CALM      29.97F
WAUPACA        CLEAR     64  63  97 CALM      29.97S
WAUTOMA        CLEAR     60  59  96 CALM      29.98S
WISC RAPIDS    PTCLDY    67  60  78 S5        29.97S
CAMP DOUGLAS   NOT AVBL
$$

WIZ011>013-019>022-031-037>040-048>050-251000-
NORTHEAST WISCONSIN

CITY           SKY/WX    TMP DP  RH WIND       PRES   REMARKS
ANTIGO         CLEAR     62  60  91 S3        29.99S
SHAWANO        CLEAR     69  62  77 CALM      29.96S
OCONTO         PTCLDY    64  59  86 CALM      29.96F
STURGEON BAY   CLEAR     70  61  73 S9        29.98F
GREEN BAY      CLEAR     67  62  84 S5        29.97F
MANITOWOC      CLEAR     63  61  93 E3        29.99F
APPLETON       CLEAR     68  55  64 CALM      29.97S
CLINTONVILLE   CLEAR     64  61  88 CALM      29.97S
OSHKOSH        CLEAR     66  60  81 S8        29.97S
$$

WIZ032>034-041-042-053>061-251000-
SOUTHWEST WISCONSIN

CITY           SKY/WX    TMP DP  RH WIND       PRES   REMARKS
LA CROSSE      CLEAR     71  66  84 SE5       29.93F
SPARTA         CLEAR     60  59  94 CALM      29.95S
VIROQUA        CLEAR     68  63  83 S8        29.96F
BOSCOBEL       CLEAR     62  60  93 CALM      29.96S FOG
PRAIRIE DU CHI CLEAR     66  62  86 S3        29.95S
PLATTEVILLE    CLEAR     69  62  80 SE5       29.97F
$$

WIZ056-057-062-063-064-067-068-251000-
SOUTH CENTRAL WISCONSIN

CITY           SKY/WX    TMP DP  RH WIND       PRES   REMARKS
REEDSBURG      PTCLDY    66  62  88 CALM      29.96F
BARABOO/DELLS  MOCLDY    68  60  74 S6        29.97S
LONE ROCK      NOT AVBL
MINERAL POINT  CLEAR     68  63  83 SE5       29.98S
MADISON        CLEAR     64  61  90 CALM      29.98S
MIDDLETON      CLEAR     63  61  94 CALM      29.99S
WATERTOWN      CLEAR     64  62  92 CALM      29.99S
MONROE         CLEAR     70  57  64 S6        29.98F
JANESVILLE     CLEAR     63  63 100 CALM      29.98R
$$

WIZ051-052-058>065-066-070>072-251000-
SOUTHEAST WISCONSIN

CITY           SKY/WX    TMP DP  RH WIND       PRES   REMARKS
MILWAUKEE      CLEAR     68  64  87 CALM      29.99S
WAUKESHA       CLEAR     61  59  94 CALM      30.01S
MILWAUKEE/TIMM CLEAR     63  57  82 CALM      30.00S
RACINE         CLEAR     68  67  96 CALM      30.01S
BURLINGTON     CLEAR     58  58 100 CALM      29.99F
KENOSHA        CLEAR     66  63  90 S3        30.00S
FOND DU LAC    CLEAR     65  59  81 S5        29.99R
SHEBOYGAN      CLEAR     60  60 100 CALM      29.99S FOG
WEST BEND        N/A     61  61 100 CALM      30.00S
JUNEAU         CLEAR     66  59  79 SE3       30.00S
$$

LSZ147-162-251000-
LAKE SUPERIOR

STATION/POSITION TIME  TEMP    WIND        PRES    WAVE
                       AIR SEA DIR/SP/G            HT/PER
                 (UTC) (F)     (DEG/KT/KT) (MB)    (FT/S)
W MID LAKE BUOY  0750   59 56  210/  4/  6 1011.4R   1
DEVILS ISLAND    0800   67     240/ 11/ 12 1011.3F
PORT WING        0840   68     230/  6/  9 1012.5R
SAXON HARBOR     0830   73     200/  2/  5 1011.5S
$$

LMZ867-665-643>646-251000-
LAKE MICHIGAN

STATION/POSITION TIME  TEMP    WIND        PRES    WAVE
                       AIR SEA DIR/SP/G            HT/PER
                 (UTC) (F)     (DEG/KT/KT) (MB)    (FT/S)
S GREEN BAY BUOY 0800   72 70  190/  6/  8 1014.7
N MID LAKE BUOY  0750   69 67  190/  8/  8 1015.6F   1/ 3
NORTHPORT PIER   0840   69     170/  3/  7 1014.6F
KEWAUNEE LAKESHO 0830   64     180/  4/  5 1014.5F
SHEBOYGAN LAKESH 0800   71     210/  4/  5 1015.2S
PORT WASHINGTON  0830   66     270/  1/  2 1016.6S
ATWATER BUOY     0739   65 60  130/  2/  4 1015.7F
MILWAUKEE LAKESH 0830   71     160/  3/  3   N/A
S MID LAKE BUOY  0750   73 71  140/ 10/ 12 1015.8F   1
KENOSHA   LAKESH 0800   73     190/  5/  7 1015.6
$$

TC  - TEMPERATURE IN CELSIUS
VSB - VISIBILITY IN STATUTE MILES
WCI - WIND CHILL INDEX
HX  - HEAT INDEX




USA.gov is the U.S. government's official web portal to all federal, state and local government web resources and services.